Location: Camaret
(48.2753°N, 4.5961°W)
Time: 02:59:25
(UTC+00:00)

CSL-04 Rocket - Pass Details

Date: 29 October 2020
Orbit: 805 x 861 km, 98.9° (Epoch: 01 December)

Event Time Altitude Azimuth Distance (km) Brightness Sun altitude
Rises 18:34:25 0° 146° (SE) 3,425 6.6 -15.6°
Reaches altitude 10° 18:36:51 10° 141° (SE) 2,489 5.8 -16.0°
Maximum altitude 18:42:09 49° 67° (ENE) 1,088 3.9 -16.9°
Drops below altitude 10° 18:47:26 10° 354° (N) 2,481 6.2 -17.8°
Sets 18:49:52 0° 350° (N) 3,413 7.0 -18.2°
